Weather History for Thomson, GA

Change the Weather History Date:

Saturday, February 9, 2013

  Actual Average (KDBN) Record (KDBN)
Temperature  
Mean Temperature 44 °F -  
Max Temperature 60 °F 58 °F 83 °F (1957)
Min Temperature 27 °F 30 °F 15 °F (1933)
Degree Days  
Heating Degree Days 22    
Moisture  
Dew Point 34 °F    
Average Humidity 78    
Maximum Humidity 100    
Minimum Humidity 37    
Precipitation  
Precipitation 0.00 in - - ()
Sea Level Pressure  
Sea Level Pressure 30.29 in    
Wind  
Wind Speed 2 mph (ENE)    
Max Wind Speed 9 mph    
Max Gust Speed -    
Visibility 10 miles    
Events      
Averages and records for this station are not official NWS values.
T = Trace of Precipitation, MM = Missing Value Source: NWS Daily Summary

Daily Weather History Graph

Daily Weather History Graph

Search for Another Location

Airport:

Trip Planner

Search our weather history database for the weather conditions in past years. The results will help you decide how hot, cold, wet, or windy it might be!

Date:

Astronomy

Feb. 09, 2013 Rise Set
Actual Time 7:19 AM EST 6:09 PM EST
Civil Twilight 6:53 AM EST 6:35 PM EST
Nautical Twilight 6:24 AM EST 7:04 PM EST
Astronomical Twilight 5:55 AM EST 7:33 PM EST
Moon 6:30 AM EST (2/9) 5:49 PM EST (2/9)
Length of Visible Light 11h 41m
Length of Day
10h 49m
Waning Crescent, 0% of the Moon is Illuminated
Feb 9
Waning Crescent
Feb 10
New
Feb 17
First Quarter
Feb 25
Full
Mar 4
Last Quarter

Hourly Weather History & Observations

Time (EST) Temp. Windchill Dew Point Humidity Pressure Visibility Wind Dir Wind Speed Gust Speed Precip Events Conditions
12:15 AM 40.1 °F 36.1 °F 40.1 °F 100% 30.16 in 10.0 mi NNW 5.8 mph - N/A   Clear
12:35 AM 38.1 °F 35.7 °F 38.1 °F 100% 30.16 in 10.0 mi WNW 3.5 mph - N/A   Clear
12:55 AM 37.8 °F 35.3 °F 37.8 °F 100% 30.16 in 10.0 mi NW 3.5 mph - N/A   Clear
1:15 AM 36.5 °F - 36.5 °F 100% 30.16 in 5.0 mi Calm Calm - N/A   Clear
1:35 AM 34.9 °F - 34.9 °F 100% 30.17 in 10.0 mi Calm Calm - N/A   Clear
1:55 AM 34.5 °F 31.6 °F 34.5 °F 100% 30.18 in 10.0 mi NNW 3.5 mph - N/A   Clear
2:15 AM 33.3 °F - 33.3 °F 100% 30.18 in 10.0 mi Calm Calm - N/A   Clear
2:35 AM 32.9 °F - 32.9 °F 100% 30.19 in 7.0 mi Calm Calm - N/A   Clear
2:55 AM 32.4 °F - 32.4 °F 100% 30.20 in 7.0 mi Calm Calm - N/A   Clear
3:15 AM 32.0 °F - 32.0 °F 100% 30.21 in 7.0 mi Calm Calm - N/A   Clear
3:35 AM 31.5 °F - 31.5 °F 100% 30.21 in 10.0 mi Calm Calm - N/A   Clear
3:55 AM 30.9 °F - 30.9 °F 100% 30.22 in 7.0 mi Calm Calm - N/A   Clear
4:15 AM 30.7 °F - 30.7 °F 100% 30.23 in 7.0 mi Calm Calm - N/A   Clear
4:35 AM 30.2 °F - 30.2 °F 100% 30.24 in 10.0 mi Calm Calm - N/A   Clear
4:55 AM 30.4 °F - 30.4 °F 100% 30.24 in 10.0 mi Calm Calm - N/A   Clear
5:15 AM 29.8 °F - 29.8 °F 100% 30.25 in 10.0 mi Calm Calm - N/A   Clear
5:35 AM 29.8 °F - 29.8 °F 100% 30.26 in 7.0 mi Calm Calm - N/A   Clear
5:55 AM 29.5 °F - 29.5 °F 100% 30.26 in 10.0 mi Calm Calm - N/A   Clear
6:15 AM 28.9 °F - 28.9 °F 100% 30.26 in 10.0 mi Calm Calm - N/A   Clear
6:35 AM 28.6 °F - 28.6 °F 100% 30.27 in 10.0 mi Calm Calm - N/A   Clear
6:55 AM 27.5 °F - 27.5 °F 100% 30.28 in 10.0 mi Calm Calm - N/A   Clear
7:15 AM 28.0 °F - 28.0 °F 100% 30.29 in 10.0 mi Calm Calm - N/A   Clear
7:35 AM 28.4 °F - 28.4 °F 100% 30.29 in 10.0 mi Calm Calm - N/A   Clear
7:55 AM 28.8 °F - 28.8 °F 100% 30.30 in 10.0 mi Calm Calm - N/A   Clear
8:15 AM 30.4 °F - 30.4 °F 100% 30.31 in 10.0 mi Calm Calm - N/A   Clear
8:35 AM 32.2 °F - 32.2 °F 100% 30.32 in 10.0 mi Calm Calm - N/A   Clear
8:55 AM 35.8 °F - 35.8 °F 100% 30.32 in 10.0 mi Calm Calm - N/A   Clear
9:15 AM 37.9 °F - 37.8 °F 99% 30.33 in 10.0 mi Calm Calm - N/A   Clear
9:35 AM 40.8 °F - 38.5 °F 91% 30.34 in 10.0 mi Calm Calm - N/A   Clear
9:55 AM 42.8 °F 41.1 °F 39.0 °F 86% 30.34 in 10.0 mi NE 3.5 mph - N/A   Clear
10:15 AM 44.8 °F - 39.0 °F 80% 30.35 in 10.0 mi Calm Calm - N/A   Clear
10:35 AM 48.2 °F - 34.3 °F 59% 30.34 in 10.0 mi NE 3.5 mph - N/A   Clear
10:55 AM 48.7 °F - 32.0 °F 52% 30.34 in 10.0 mi NNE 5.8 mph - N/A   Clear
11:15 AM 50.2 °F - 32.7 °F 51% 30.34 in 10.0 mi NNE 6.9 mph - N/A   Clear
11:35 AM 51.6 °F - 33.6 °F 50% 30.34 in 10.0 mi NNE 5.8 mph - N/A   Clear
11:55 AM 52.5 °F - 33.3 °F 48% 30.34 in 10.0 mi NE 6.9 mph - N/A   Clear
12:15 PM 53.6 °F - 34.3 °F 48% 30.34 in 10.0 mi NE 9.2 mph - N/A   Clear
12:35 PM 53.6 °F - 33.8 °F 47% 30.33 in 10.0 mi ENE 8.1 mph - N/A   Clear
12:55 PM 54.5 °F - 32.7 °F 44% 30.33 in 10.0 mi ENE 5.8 mph - N/A   Clear
1:15 PM 55.2 °F - 34.0 °F 45% 30.32 in 10.0 mi East 3.5 mph - N/A   Clear
1:35 PM 56.8 °F - 33.8 °F 42% 30.32 in 10.0 mi NE 4.6 mph - N/A   Clear
1:55 PM 57.4 °F - 34.0 °F 41% 30.31 in 10.0 mi ESE 4.6 mph - N/A   Clear
2:15 PM 57.6 °F - 34.2 °F 41% 30.30 in 10.0 mi East 5.8 mph - N/A   Clear
2:35 PM 58.5 °F - 34.7 °F 41% 30.29 in 10.0 mi NE 4.6 mph - N/A   Clear
2:55 PM 59.5 °F - 35.1 °F 40% 30.28 in 10.0 mi ESE 6.9 mph - N/A   Clear
3:15 PM 59.4 °F - 34.3 °F 39% 30.28 in 10.0 mi ESE 3.5 mph - N/A   Clear
3:35 PM 60.3 °F - 34.9 °F 39% 30.27 in 10.0 mi SE 4.6 mph - N/A   Clear
3:55 PM 60.3 °F - 34.0 °F 37% 30.27 in 10.0 mi SSE 4.6 mph - N/A   Clear
4:15 PM 60.4 °F - 34.5 °F 38% 30.28 in 10.0 mi SE 3.5 mph - N/A   Clear
4:35 PM 60.3 °F - 34.5 °F 38% 30.27 in 10.0 mi ESE 4.6 mph - N/A   Clear
4:55 PM 60.1 °F - 34.3 °F 38% 30.27 in 10.0 mi East 3.5 mph - N/A   Clear
5:15 PM 59.2 °F - 34.7 °F 40% 30.27 in 10.0 mi ESE 5.8 mph - N/A   Clear
5:35 PM 57.9 °F - 34.2 °F 41% 30.28 in 10.0 mi SE 4.6 mph - N/A   Clear
5:55 PM 56.3 °F - 34.2 °F 43% 30.29 in 10.0 mi ESE 3.5 mph - N/A   Clear
6:15 PM 52.7 °F - 36.1 °F 53% 30.29 in 10.0 mi Calm Calm - N/A   Clear
6:35 PM 49.1 °F - 37.4 °F 64% 30.29 in 10.0 mi Calm Calm - N/A   Clear
6:55 PM 46.6 °F - 37.6 °F 71% 30.30 in 10.0 mi Calm Calm - N/A   Clear
7:15 PM 45.0 °F - 37.4 °F 75% 30.31 in 10.0 mi Calm Calm - N/A   Clear
7:35 PM 42.8 °F - 37.6 °F 82% 30.32 in 10.0 mi Calm Calm - N/A   Clear
7:55 PM 41.2 °F - 37.4 °F 86% 30.33 in 10.0 mi Calm Calm - N/A   Clear
8:15 PM 40.1 °F - 36.9 °F 88% 30.33 in 10.0 mi Calm Calm - N/A   Clear
8:35 PM 38.3 °F - 36.1 °F 92% 30.34 in 10.0 mi Calm Calm - N/A   Clear
8:55 PM 38.5 °F - 36.5 °F 93% 30.34 in 10.0 mi Calm Calm - N/A   Clear
9:15 PM 37.8 °F - 36.1 °F 94% 30.33 in 10.0 mi Calm Calm - N/A   Clear
9:35 PM 36.9 °F - 35.6 °F 95% 30.34 in 10.0 mi Calm Calm - N/A   Clear
9:55 PM 37.0 °F - 35.6 °F 95% 30.34 in 10.0 mi Calm Calm - N/A   Clear
10:15 PM 34.7 °F - 34.5 °F 99% 30.34 in 10.0 mi Calm Calm - N/A   Clear
10:35 PM 34.2 °F - 34.2 °F 100% 30.34 in 10.0 mi Calm Calm - N/A   Clear
10:55 PM 34.2 °F - 34.2 °F 100% 30.33 in 10.0 mi Calm Calm - N/A   Clear
11:15 PM 33.8 °F - 33.8 °F 100% 30.33 in 10.0 mi Calm Calm - N/A   Clear
11:35 PM 32.0 °F - 32.0 °F 100% 30.34 in 10.0 mi Calm Calm - N/A   Clear
11:55 PM 32.9 °F - 32.9 °F 100% 30.34 in 10.0 mi Calm Calm - N/A   Clear